Back to catalog

STARLINK-3193

AliveCommunicationsVLEO
NORAD 49754·PAYLOAD·🇺🇸 United States

Launched Dec 2, 2021 from Cape Canaveral Space Force Station

Loading…

Next Passes (next 24 hours)

TLE

FreshSource: CelesTrak SupGP

Epoch: Sep 14, 2026, 20:45 UTC

1 49754C 21115AG  26257.86506944 -.00042848  00000+0 -12259-2 0  2578
2 49754  53.1593 356.3936 0001019  83.8529 114.8219 15.35420306    14

Track STARLINK-3193 in real time with AllMySat

Download on the App Store